CSN3595 ZGGG-ZSSS

Flight info

Callsign CSN3595
Flight time 1h 45m
Altitude 37100
Route LMN9 LMN G471 XEBUL DCT ODOPI DCT AKAVO DCT UPNUG W76 AREPI B221 SHZ G204 JTN
Aircraft B763/H-SDE3FGHIM3RWXY/LB1

Departure

Time 2026-05-01 12:45
Airport Guangzhou Baiyun International Airport (ZGGG)

Arrival

Time 2026-05-01 14:31
Airport Shanghai Hongqiao International Airport (ZSSS)
Time Latitude Longitude Altitude Speed Heading
2026-05-01 12:13 23.39334 113.29275 57 ft 0 kts 69°
2026-05-01 12:30 23.39329 113.29261 57 ft 2 kts 69°
2026-05-01 12:31 23.39324 113.29246 57 ft 2 kts 69°
2026-05-01 12:31 23.39319 113.29230 57 ft 2 kts 69°
2026-05-01 12:31 23.39314 113.29216 57 ft 2 kts 70°
2026-05-01 12:31 23.39309 113.29201 57 ft 2 kts 70°
2026-05-01 12:32 23.39304 113.29185 57 ft 2 kts 70°
2026-05-01 12:32 23.39294 113.29160 57 ft 2 kts 52°
2026-05-01 12:32 23.39284 113.29150 57 ft 2 kts 24°
2026-05-01 12:33 23.39275 113.29147 57 ft 1 kts 12°
2026-05-01 12:35 23.39283 113.29150 57 ft 3 kts 13°
2026-05-01 12:35 23.39318 113.29159 57 ft 6 kts 14°
2026-05-01 12:35 23.39370 113.29173 57 ft 8 kts 14°
2026-05-01 12:36 23.39433 113.29190 57 ft 9 kts 14°
2026-05-01 12:36 23.39505 113.29210 57 ft 11 kts 14°
2026-05-01 12:36 23.39588 113.29232 57 ft 13 kts 14°
2026-05-01 12:36 23.39681 113.29258 57 ft 14 kts 14°
2026-05-01 12:37 23.39784 113.29286 57 ft 15 kts 14°
2026-05-01 12:37 23.39897 113.29318 57 ft 17 kts 14°
2026-05-01 12:37 23.40019 113.29351 57 ft 18 kts 14°
2026-05-01 12:37 23.40151 113.29385 57 ft 20 kts 13°
2026-05-01 12:38 23.40284 113.29420 57 ft 18 kts 14°
2026-05-01 12:38 23.40410 113.29454 57 ft 17 kts 14°
2026-05-01 12:38 23.40513 113.29483 57 ft 13 kts 14°
2026-05-01 12:38 23.40604 113.29507 57 ft 13 kts 15°
2026-05-01 12:39 23.40666 113.29556 57 ft 5 kts 74°
2026-05-01 12:39 23.40654 113.29599 57 ft 8 kts 110°
2026-05-01 12:39 23.40636 113.29676 57 ft 11 kts 102°
2026-05-01 12:39 23.40617 113.29768 57 ft 13 kts 103°
2026-05-01 12:40 23.40594 113.29869 57 ft 14 kts 105°
2026-05-01 12:40 23.40566 113.29977 57 ft 15 kts 106°
2026-05-01 12:40 23.40538 113.30093 57 ft 16 kts 103°
2026-05-01 12:40 23.40510 113.30217 57 ft 17 kts 104°
2026-05-01 12:41 23.40479 113.30351 57 ft 18 kts 104°
2026-05-01 12:41 23.40447 113.30489 57 ft 19 kts 103°
2026-05-01 12:41 23.40414 113.30637 57 ft 20 kts 104°
2026-05-01 12:41 23.40378 113.30786 57 ft 20 kts 102°
2026-05-01 12:42 23.40346 113.30935 57 ft 18 kts 104°
2026-05-01 12:42 23.40326 113.31029 57 ft 8 kts 95°
2026-05-01 12:42 23.40354 113.31084 57 ft 8 kts 25°
2026-05-01 12:42 23.40406 113.31099 57 ft 7 kts
2026-05-01 12:43 23.40467 113.31113 57 ft 11 kts 13°
2026-05-01 12:43 23.40559 113.31137 57 ft 14 kts 14°
2026-05-01 12:43 23.40664 113.31167 57 ft 16 kts 14°
2026-05-01 12:43 23.40725 113.31237 57 ft 13 kts 95°
2026-05-01 12:44 23.40695 113.31338 57 ft 14 kts 124°
2026-05-01 12:44 23.40608 113.31354 57 ft 14 kts 194°
2026-05-01 12:44 23.39950 113.31180 57 ft 102 kts 193°
2026-05-01 12:45 23.37954 113.30621 466 ft 170 kts 193°
2026-05-01 12:45 23.36861 113.30318 1319 ft 163 kts 190°
2026-05-01 12:45 23.35705 113.30026 1905 ft 178 kts 189°
2026-05-01 12:46 23.34487 113.29723 2644 ft 185 kts 191°
2026-05-01 12:46 23.33166 113.29369 3144 ft 212 kts 192°
2026-05-01 12:46 23.31658 113.28966 3764 ft 235 kts 193°
2026-05-01 12:46 23.30071 113.28588 4795 ft 239 kts 184°
2026-05-01 12:47 23.28398 113.28509 5826 ft 244 kts 182°
2026-05-01 12:47 23.26699 113.28473 6807 ft 251 kts 183°
2026-05-01 12:47 23.24923 113.28440 7615 ft 266 kts 183°
2026-05-01 12:47 23.22999 113.28413 8380 ft 283 kts 183°
2026-05-01 12:48 23.21027 113.28392 9480 ft 287 kts 184°
2026-05-01 12:48 23.19027 113.28333 10450 ft 292 kts 189°
2026-05-01 12:48 23.16971 113.27912 10847 ft 319 kts 195°
2026-05-01 12:48 23.14625 113.27688 11171 ft 356 kts 179°
2026-05-01 12:49 23.12067 113.28258 11616 ft 391 kts 162°
2026-05-01 12:49 23.09649 113.29674 12740 ft 403 kts 147°
2026-05-01 12:49 23.07604 113.31732 13754 ft 415 kts 133°
2026-05-01 12:49 23.05922 113.34338 14758 ft 425 kts 121°
2026-05-01 12:50 23.04685 113.37251 15753 ft 433 kts 111°
2026-05-01 12:50 23.03917 113.40416 16642 ft 442 kts 100°
2026-05-01 12:50 23.03658 113.43761 17527 ft 449 kts 89°
2026-05-01 12:50 23.03930 113.47124 18380 ft 454 kts 79°
2026-05-01 12:51 23.04738 113.50452 19237 ft 457 kts 69°
2026-05-01 12:51 23.06045 113.53590 20016 ft 460 kts 59°
2026-05-01 12:51 23.09870 113.59135 21425 ft 465 kts 42°
2026-05-01 12:52 23.12356 113.61378 22145 ft 465 kts 33°
2026-05-01 12:52 23.17499 113.65794 23361 ft 476 kts 39°
2026-05-01 12:52 23.19997 113.68192 23902 ft 483 kts 40°
2026-05-01 12:53 23.24980 113.73156 25109 ft 491 kts 41°
2026-05-01 12:53 23.27497 113.75703 25672 ft 495 kts 41°
2026-05-01 12:53 23.30019 113.78271 26245 ft 499 kts 41°
2026-05-01 12:54 23.32542 113.80847 26742 ft 504 kts 41°
2026-05-01 12:54 23.37468 113.86293 27837 ft 511 kts 50°
2026-05-01 12:54 23.39477 113.89500 28558 ft 510 kts 56°
2026-05-01 12:55 23.43286 113.95955 30118 ft 503 kts 56°
2026-05-01 12:55 23.45143 113.99126 30909 ft 499 kts 56°
2026-05-01 12:55 23.47005 114.02316 31595 ft 498 kts 56°
2026-05-01 12:56 23.48850 114.05482 32270 ft 495 kts 56°
2026-05-01 12:56 23.50721 114.08600 33081 ft 489 kts 52°
2026-05-01 12:56 23.52880 114.11429 33587 ft 488 kts 43°
2026-05-01 12:56 23.55412 114.13849 34156 ft 484 kts 33°
2026-05-01 12:57 23.58237 114.15784 34868 ft 477 kts 24°
2026-05-01 12:57 23.64167 114.18961 36053 ft 474 kts 22°
2026-05-01 12:57 23.67133 114.20514 36521 ft 475 kts 21°
2026-05-01 12:58 23.70148 114.22082 36955 ft 476 kts 21°
2026-05-01 12:58 23.73112 114.23620 37540 ft 473 kts 21°
2026-05-01 12:58 23.76080 114.25156 38002 ft 473 kts 21°
2026-05-01 12:59 23.81952 114.28363 38915 ft 475 kts 28°
2026-05-01 12:59 23.84670 114.30437 39117 ft 475 kts 32°
2026-05-01 12:59 23.89969 114.34723 39098 ft 476 kts 32°
2026-05-01 13:00 23.97952 114.41239 39108 ft 477 kts 32°
2026-05-01 13:01 24.05887 114.47742 39105 ft 476 kts 32°
2026-05-01 13:02 24.13832 114.54266 39101 ft 476 kts 32°
2026-05-01 13:07 24.71962 114.95748 39093 ft 460 kts
2026-05-01 13:07 24.75079 114.96539 39083 ft 461 kts
2026-05-01 13:08 24.81349 114.98085 39091 ft 462 kts
2026-05-01 13:08 24.87635 114.99620 39088 ft 461 kts
2026-05-01 13:09 24.93895 115.01146 39096 ft 460 kts
2026-05-01 13:09 25.00106 115.02662 39089 ft 459 kts
2026-05-01 13:10 25.06373 115.04192 39093 ft 460 kts
2026-05-01 13:10 25.12632 115.05720 39085 ft 462 kts
2026-05-01 13:11 25.18910 115.07256 39086 ft 464 kts
2026-05-01 13:11 25.25198 115.08798 39079 ft 462 kts
2026-05-01 13:12 25.31492 115.10000 39081 ft 453 kts 356°
2026-05-01 13:12 25.37627 115.09154 39079 ft 442 kts 338°
2026-05-01 13:13 25.43337 115.06635 39057 ft 440 kts 332°
2026-05-01 13:13 25.48897 115.03907 39052 ft 438 kts 331°
2026-05-01 13:14 25.54450 115.01094 39048 ft 439 kts 331°
2026-05-01 13:14 25.60015 114.98244 39057 ft 439 kts 331°
2026-05-01 13:15 25.65530 114.95409 39054 ft 437 kts 330°
2026-05-01 13:15 25.71111 114.92690 39056 ft 442 kts 338°
2026-05-01 13:16 25.77270 114.91668 39076 ft 455 kts 356°
2026-05-01 13:16 25.83594 114.92974 39073 ft 472 kts 15°
2026-05-01 13:17 25.91933 114.99100 39060 ft 493 kts 43°
2026-05-01 13:17 25.94084 115.02048 39069 ft 497 kts 50°
2026-05-01 13:18 26.00663 115.10822 39040 ft 493 kts 43°
2026-05-01 13:18 26.05294 115.16457 39041 ft 493 kts 43°
2026-05-01 13:19 26.09942 115.22028 39045 ft 492 kts 42°
2026-05-01 13:20 26.16945 115.30397 39055 ft 492 kts 42°
2026-05-01 13:20 26.21603 115.35963 39062 ft 493 kts 42°
2026-05-01 13:21 26.28592 115.44331 39077 ft 492 kts 42°
2026-05-01 13:21 26.33240 115.49902 39089 ft 494 kts 42°
2026-05-01 13:22 26.37921 115.55523 39086 ft 492 kts 42°
2026-05-01 13:22 26.42557 115.61094 39078 ft 493 kts 42°
2026-05-01 13:23 26.47246 115.66738 39052 ft 494 kts 42°
2026-05-01 13:23 26.51901 115.72347 39055 ft 492 kts 43°
2026-05-01 13:24 26.56536 115.77939 39057 ft 494 kts 43°
2026-05-01 13:25 26.63522 115.86383 39049 ft 491 kts 43°
2026-05-01 13:25 26.68157 115.91993 39053 ft 492 kts 43°
2026-05-01 13:26 26.72784 115.97601 39057 ft 493 kts 43°
2026-05-01 13:26 26.77438 116.03249 39061 ft 492 kts 43°
2026-05-01 13:27 26.82063 116.08869 39073 ft 492 kts 43°
2026-05-01 13:27 26.88986 116.17295 39075 ft 492 kts 42°
2026-05-01 13:28 26.95965 116.25743 39080 ft 494 kts 42°
2026-05-01 13:29 27.05299 116.37003 39079 ft 492 kts 42°
2026-05-01 13:31 27.19200 116.53826 39064 ft 491 kts 42°
2026-05-01 13:32 27.30988 116.67626 39056 ft 489 kts 41°
2026-05-01 13:33 27.42837 116.81458 39061 ft 490 kts 41°
2026-05-01 13:34 27.52277 116.92505 39096 ft 489 kts 41°
2026-05-01 13:35 27.59387 117.00719 39102 ft 488 kts 41°
2026-05-01 13:36 27.66496 117.08948 39092 ft 489 kts 41°
2026-05-01 13:36 27.73584 117.17172 39087 ft 489 kts 41°
2026-05-01 13:37 27.77534 117.21761 39094 ft 489 kts 41°
2026-05-01 13:37 27.83074 117.28205 39104 ft 490 kts 41°
2026-05-01 13:38 27.90156 117.36459 39095 ft 490 kts 41°
2026-05-01 13:39 27.94875 117.41969 39091 ft 489 kts 41°
2026-05-01 13:39 27.99624 117.47520 39074 ft 490 kts 41°
2026-05-01 13:40 28.04342 117.53043 39081 ft 489 kts 40°
2026-05-01 13:40 28.09057 117.58569 39087 ft 489 kts 40°
2026-05-01 13:41 28.13779 117.64108 39088 ft 490 kts 40°
2026-05-01 13:41 28.18502 117.69655 39072 ft 490 kts 41°
2026-05-01 13:42 28.23246 117.75235 39068 ft 491 kts 41°
2026-05-01 13:42 28.27983 117.80817 39074 ft 491 kts 41°
2026-05-01 13:43 28.32711 117.86392 39084 ft 492 kts 41°
2026-05-01 13:43 28.37427 117.91962 39085 ft 491 kts 40°
2026-05-01 13:44 28.42125 117.97532 39085 ft 492 kts 41°
2026-05-01 13:44 28.46803 118.03281 39090 ft 494 kts 42°
2026-05-01 13:45 28.51433 118.08977 39080 ft 492 kts 42°
2026-05-01 13:45 28.56083 118.14703 39084 ft 493 kts 42°
2026-05-01 13:46 28.60740 118.20447 39090 ft 493 kts 41°
2026-05-01 13:46 28.65372 118.26168 39093 ft 493 kts 41°
2026-05-01 13:47 28.70006 118.31898 39086 ft 494 kts 41°
2026-05-01 13:47 28.74663 118.37666 39083 ft 495 kts 41°
2026-05-01 13:48 28.79302 118.43418 39088 ft 495 kts 42°
2026-05-01 13:48 28.83959 118.49203 39086 ft 496 kts 41°
2026-05-01 13:49 28.88610 118.54989 39089 ft 495 kts 41°
2026-05-01 13:49 28.93253 118.60772 39089 ft 493 kts 41°
2026-05-01 13:50 28.97885 118.66547 39068 ft 493 kts 41°
2026-05-01 13:50 29.02524 118.72341 39073 ft 496 kts 41°
2026-05-01 13:51 29.07178 118.78162 39081 ft 497 kts 41°
2026-05-01 13:51 29.11812 118.83970 39089 ft 496 kts 41°
2026-05-01 13:52 29.16447 118.89784 39091 ft 495 kts 41°
2026-05-01 13:52 29.21075 118.95597 39091 ft 495 kts 41°
2026-05-01 13:53 29.25720 119.01443 39090 ft 495 kts 41°
2026-05-01 13:53 29.32639 119.10174 39086 ft 495 kts 41°
2026-05-01 13:54 29.37240 119.15993 39091 ft 494 kts 41°
2026-05-01 13:54 29.41848 119.21838 39093 ft 495 kts 41°
2026-05-01 13:55 29.46440 119.27672 39094 ft 495 kts 41°
2026-05-01 13:55 29.51047 119.33536 39100 ft 494 kts 41°
2026-05-01 13:56 29.55635 119.39378 39108 ft 494 kts 41°
2026-05-01 13:56 29.59855 119.45691 39121 ft 504 kts 55°
2026-05-01 13:57 29.62168 119.51870 39125 ft 515 kts 70°
2026-05-01 13:57 29.63050 119.57264 39123 ft 523 kts 82°
2026-05-01 13:57 29.63104 119.61455 39126 ft 525 kts 91°
2026-05-01 13:58 29.62717 119.69807 39108 ft 525 kts 90°
2026-05-01 13:58 29.62496 119.78123 39120 ft 523 kts 89°
2026-05-01 13:59 29.62305 119.86518 39107 ft 524 kts 89°
2026-05-01 13:59 29.62120 119.94818 39079 ft 524 kts 89°
2026-05-01 14:00 29.62024 119.99056 38779 ft 527 kts 89°
2026-05-01 14:00 29.61929 120.03188 38486 ft 522 kts 90°
2026-05-01 14:00 29.61833 120.07319 38182 ft 516 kts 89°
2026-05-01 14:00 29.61736 120.11460 37885 ft 511 kts 89°
2026-05-01 14:01 29.61640 120.15486 37596 ft 510 kts 89°
2026-05-01 14:01 29.61543 120.19548 37308 ft 512 kts 89°
2026-05-01 14:01 29.61445 120.23640 37027 ft 514 kts 89°
2026-05-01 14:01 29.61348 120.27751 36743 ft 514 kts 89°
2026-05-01 14:02 29.61253 120.31831 36457 ft 512 kts 89°
2026-05-01 14:02 29.61158 120.35928 36173 ft 512 kts 89°
2026-05-01 14:02 29.61061 120.39986 35896 ft 511 kts 89°
2026-05-01 14:02 29.60963 120.44061 35608 ft 511 kts 89°
2026-05-01 14:03 29.60864 120.48147 34976 ft 517 kts 89°
2026-05-01 14:03 29.60763 120.52268 34121 ft 520 kts 89°
2026-05-01 14:03 29.60660 120.56393 33286 ft 518 kts 90°
2026-05-01 14:03 29.60556 120.60499 32487 ft 515 kts 90°
2026-05-01 14:04 29.60454 120.64512 31644 ft 504 kts 89°
2026-05-01 14:04 29.60599 120.68526 30866 ft 503 kts 81°
2026-05-01 14:04 29.61270 120.72465 30118 ft 510 kts 72°
2026-05-01 14:04 29.62001 120.75021 29622 ft 514 kts 66°
2026-05-01 14:05 29.64146 120.79925 28700 ft 519 kts 55°
2026-05-01 14:05 29.66261 120.83283 27960 ft 517 kts 46°
2026-05-01 14:05 29.68695 120.86173 27131 ft 495 kts 37°
2026-05-01 14:05 29.71359 120.88504 26390 ft 474 kts 28°
2026-05-01 14:06 29.74204 120.90341 25651 ft 467 kts 24°
2026-05-01 14:06 29.77075 120.92110 24963 ft 474 kts 24°
2026-05-01 14:06 29.80019 120.93918 24252 ft 480 kts 24°
2026-05-01 14:06 29.82961 120.95731 23500 ft 473 kts 24°
2026-05-01 14:07 29.85771 120.97464 22807 ft 460 kts 24°
2026-05-01 14:07 29.88607 120.99209 22128 ft 457 kts 24°
2026-05-01 14:07 29.91396 121.00927 21453 ft 454 kts 24°
2026-05-01 14:08 29.96909 121.04325 20107 ft 447 kts 24°
2026-05-01 14:08 29.99641 121.06014 19448 ft 443 kts 24°
2026-05-01 14:08 30.02352 121.07690 18790 ft 439 kts 25°
2026-05-01 14:08 30.04992 121.09324 18142 ft 435 kts 25°
2026-05-01 14:09 30.07661 121.10977 17474 ft 432 kts 25°
2026-05-01 14:09 30.10282 121.12600 16811 ft 428 kts 25°
2026-05-01 14:09 30.12905 121.14227 16127 ft 424 kts 25°
2026-05-01 14:09 30.15508 121.15841 15446 ft 421 kts 26°
2026-05-01 14:10 30.18055 121.17423 14831 ft 415 kts 26°
2026-05-01 14:10 30.20551 121.18973 14315 ft 408 kts 26°
2026-05-01 14:10 30.23042 121.20522 13920 ft 402 kts 26°
2026-05-01 14:10 30.25559 121.21860 13313 ft 396 kts 16°
2026-05-01 14:11 30.28217 121.22465 12851 ft 388 kts
2026-05-01 14:11 30.33598 121.23174 12011 ft 385 kts
2026-05-01 14:11 30.36247 121.23524 11528 ft 382 kts
2026-05-01 14:12 30.38869 121.23865 11066 ft 378 kts
2026-05-01 14:12 30.41489 121.24207 10611 ft 376 kts
2026-05-01 14:12 30.44096 121.24545 10219 ft 371 kts
2026-05-01 14:12 30.46588 121.24883 10198 ft 351 kts
2026-05-01 14:13 30.48950 121.25214 10174 ft 334 kts
2026-05-01 14:13 30.50457 121.25424 10159 ft 323 kts
2026-05-01 14:13 30.53340 121.25826 10078 ft 302 kts
2026-05-01 14:13 30.55400 121.26113 9688 ft 293 kts
2026-05-01 14:14 30.57394 121.26389 9425 ft 287 kts
2026-05-01 14:14 30.59389 121.26667 9236 ft 289 kts
2026-05-01 14:14 30.61399 121.26947 9070 ft 290 kts
2026-05-01 14:14 30.63417 121.27228 8909 ft 289 kts
2026-05-01 14:15 30.65416 121.27508 8766 ft 289 kts
2026-05-01 14:15 30.67394 121.27784 8664 ft 289 kts
2026-05-01 14:15 30.69430 121.28068 8523 ft 289 kts
2026-05-01 14:15 30.71418 121.28346 8319 ft 289 kts
2026-05-01 14:16 30.73391 121.28623 8199 ft 283 kts
2026-05-01 14:16 30.75359 121.28899 8149 ft 284 kts
2026-05-01 14:16 30.77330 121.29176 8089 ft 285 kts
2026-05-01 14:16 30.79295 121.29452 8019 ft 284 kts
2026-05-01 14:17 30.81253 121.29728 7949 ft 283 kts
2026-05-01 14:17 30.83216 121.30004 7874 ft 284 kts
2026-05-01 14:17 30.85162 121.30278 7792 ft 282 kts
2026-05-01 14:17 30.87113 121.30553 7715 ft 280 kts
2026-05-01 14:18 30.89060 121.30827 7649 ft 281 kts
2026-05-01 14:18 30.90996 121.31100 7566 ft 281 kts
2026-05-01 14:18 30.92931 121.31374 7486 ft 281 kts
2026-05-01 14:18 30.94239 121.31561 7446 ft 280 kts
2026-05-01 14:19 30.96831 121.31933 7372 ft 281 kts
2026-05-01 14:19 30.98761 121.32210 7344 ft 280 kts
2026-05-01 14:19 31.00705 121.32490 7291 ft 281 kts
2026-05-01 14:19 31.02632 121.32767 7232 ft 279 kts
2026-05-01 14:20 31.04564 121.33045 7188 ft 279 kts
2026-05-01 14:20 31.08418 121.33600 7112 ft 279 kts
2026-05-01 14:20 31.10348 121.33839 7057 ft 278 kts 360°
2026-05-01 14:21 31.12195 121.33367 7025 ft 276 kts 332°
2026-05-01 14:21 31.13710 121.31993 6729 ft 279 kts 310°
2026-05-01 14:21 31.14989 121.30256 6386 ft 279 kts 309°
2026-05-01 14:22 31.17511 121.26765 5606 ft 285 kts 308°
2026-05-01 14:22 31.18773 121.24984 5161 ft 289 kts 309°
2026-05-01 14:22 31.20238 121.23482 5033 ft 280 kts 331°
2026-05-01 14:22 31.22099 121.22821 4626 ft 281 kts 355°
2026-05-01 14:23 31.24061 121.22636 4217 ft 285 kts 357°
2026-05-01 14:23 31.26060 121.22472 3729 ft 290 kts 358°
2026-05-01 14:23 31.28093 121.22333 3315 ft 292 kts 358°
2026-05-01 14:23 31.30092 121.22209 3152 ft 284 kts 359°
2026-05-01 14:24 31.32039 121.22095 3048 ft 274 kts 359°
2026-05-01 14:24 31.33905 121.21988 3038 ft 262 kts 359°
2026-05-01 14:24 31.35656 121.22172 3017 ft 246 kts 24°
2026-05-01 14:24 31.37042 121.23241 2782 ft 238 kts 54°
2026-05-01 14:25 31.37696 121.24933 2720 ft 220 kts 82°
2026-05-01 14:25 31.37913 121.26656 2681 ft 210 kts 86°
2026-05-01 14:25 31.38056 121.28299 2678 ft 199 kts 89°
2026-05-01 14:25 31.38144 121.29891 2676 ft 190 kts 90°
2026-05-01 14:26 31.37962 121.31339 2703 ft 174 kts 121°
2026-05-01 14:26 31.35894 121.32761 2078 ft 187 kts 174°
2026-05-01 14:26 31.34644 121.32809 1958 ft 165 kts 173°
2026-05-01 14:27 31.33563 121.32876 1956 ft 148 kts 173°
2026-05-01 14:27 31.32570 121.32933 1940 ft 137 kts 173°
2026-05-01 14:27 31.31660 121.32985 1967 ft 127 kts 173°
2026-05-01 14:28 31.29895 121.33085 1666 ft 123 kts 173°
2026-05-01 14:28 31.29046 121.33130 1510 ft 122 kts 173°
2026-05-01 14:28 31.28197 121.33175 1367 ft 123 kts 173°
2026-05-01 14:28 31.27331 121.33221 1231 ft 125 kts 174°
2026-05-01 14:29 31.26445 121.33265 1100 ft 127 kts 173°
2026-05-01 14:29 31.25559 121.33318 913 ft 129 kts 173°
2026-05-01 14:30 31.22906 121.33454 355 ft 128 kts 175°
2026-05-01 14:30 31.22016 121.33507 210 ft 127 kts 175°
2026-05-01 14:30 31.21119 121.33556 41 ft 129 kts 176°
2026-05-01 14:31 31.19882 121.33624 20 ft 27 kts 178°
2026-05-01 14:31 31.19685 121.33633 19 ft 29 kts 176°
2026-05-01 14:31 31.19480 121.33634 18 ft 29 kts 188°
2026-05-01 14:31 31.19320 121.33583 16 ft 8 kts 201°
2026-05-01 14:32 31.19260 121.33550 17 ft 10 kts 205°
2026-05-01 14:32 31.19214 121.33524 18 ft 11 kts 205°
2026-05-01 14:32 31.19121 121.33446 19 ft 13 kts 245°
2026-05-01 14:32 31.19112 121.33337 21 ft 14 kts 268°
2026-05-01 14:33 31.19108 121.33213 21 ft 16 kts 268°
2026-05-01 14:33 31.19104 121.33081 21 ft 13 kts 267°
2026-05-01 14:33 31.19129 121.33012 21 ft 10 kts 328°
2026-05-01 14:33 31.19171 121.32948 21 ft 10 kts 271°
2026-05-01 14:34 31.19165 121.32852 21 ft 13 kts 267°
2026-05-01 14:34 31.19194 121.32758 21 ft 10 kts 330°
2026-05-01 14:34 31.19255 121.32761 21 ft 6 kts 356°
2026-05-01 14:34 31.19304 121.32757 21 ft 5 kts 356°
2026-05-01 14:35 31.19323 121.32755 21 ft 0 kts 356°